Year,Month,Day,Hour,Minute,Value (Times are PST for temperature in C)
2023,05,13,00,00,16.30
2023,05,13,00,01,16.30
2023,05,13,00,02,16.30
2023,05,13,00,03,16.30
2023,05,13,00,04,16.30
2023,05,13,00,05,16.30
2023,05,13,00,06,16.30
2023,05,13,00,07,16.30
2023,05,13,00,08,16.20
2023,05,13,00,09,16.20
2023,05,13,00,10,16.20
2023,05,13,00,11,16.20
2023,05,13,00,12,16.20
2023,05,13,00,13,16.20
2023,05,13,00,14,16.20
2023,05,13,00,15,16.10
2023,05,13,00,16,16.10
2023,05,13,00,17,16.10
2023,05,13,00,18,16.10
2023,05,13,00,19,16.10
2023,05,13,00,20,16.10
2023,05,13,00,21,16.10
2023,05,13,00,22,16.00
2023,05,13,00,23,16.00
2023,05,13,00,24,16.00
2023,05,13,00,25,16.00
2023,05,13,00,26,16.00
2023,05,13,00,27,15.90
2023,05,13,00,28,15.90
2023,05,13,00,29,15.90
2023,05,13,00,30,15.90
2023,05,13,00,31,15.90
2023,05,13,00,32,15.90
2023,05,13,00,33,15.90
2023,05,13,00,34,16.00
2023,05,13,00,35,16.00
2023,05,13,00,36,16.10
2023,05,13,00,37,16.10
2023,05,13,00,38,16.10
2023,05,13,00,39,16.10
2023,05,13,00,40,16.10
2023,05,13,00,41,16.10
2023,05,13,00,42,16.10
2023,05,13,00,43,16.10
2023,05,13,00,44,16.10
2023,05,13,00,45,16.00
2023,05,13,00,46,16.00
2023,05,13,00,47,16.00
2023,05,13,00,48,16.00
2023,05,13,00,49,15.90
2023,05,13,00,50,15.90
2023,05,13,00,51,15.80
2023,05,13,00,52,15.80
2023,05,13,00,53,15.80
2023,05,13,00,54,15.70
2023,05,13,00,55,15.70
2023,05,13,00,56,15.60
2023,05,13,00,57,15.60
2023,05,13,00,58,15.50
2023,05,13,00,59,15.50
2023,05,13,01,00,15.50
2023,05,13,01,01,15.40
2023,05,13,01,02,15.40
2023,05,13,01,03,15.40
2023,05,13,01,04,15.30
2023,05,13,01,05,15.30
2023,05,13,01,06,15.30
2023,05,13,01,07,15.30
2023,05,13,01,08,15.30
2023,05,13,01,09,15.30
2023,05,13,01,10,15.30
2023,05,13,01,11,15.30
2023,05,13,01,12,15.30
2023,05,13,01,13,15.30
2023,05,13,01,14,15.30
2023,05,13,01,15,15.30
2023,05,13,01,16,15.20
2023,05,13,01,17,15.20
2023,05,13,01,18,15.20
2023,05,13,01,19,15.20
2023,05,13,01,20,15.10
2023,05,13,01,21,15.10
2023,05,13,01,22,15.10
2023,05,13,01,23,15.10
2023,05,13,01,24,15.00
2023,05,13,01,25,15.00
2023,05,13,01,26,15.00
2023,05,13,01,27,15.00
2023,05,13,01,28,14.90
2023,05,13,01,29,14.90
2023,05,13,01,30,14.90
2023,05,13,01,31,14.90
2023,05,13,01,32,14.90
2023,05,13,01,33,14.90
2023,05,13,01,34,14.90
2023,05,13,01,35,14.90
2023,05,13,01,36,14.90
2023,05,13,01,37,14.90
2023,05,13,01,38,14.80
2023,05,13,01,39,14.80
2023,05,13,01,40,14.80
2023,05,13,01,41,14.80
2023,05,13,01,42,14.80
2023,05,13,01,43,14.80
2023,05,13,01,44,14.80
2023,05,13,01,45,14.80
2023,05,13,01,46,14.80
2023,05,13,01,47,14.80
2023,05,13,01,48,14.80
2023,05,13,01,49,14.80
2023,05,13,01,50,14.80
2023,05,13,01,51,14.80
2023,05,13,01,52,14.80
2023,05,13,01,53,14.80
2023,05,13,01,54,14.80
2023,05,13,01,55,14.80
2023,05,13,01,56,14.80
2023,05,13,01,57,14.80
2023,05,13,01,58,14.80
2023,05,13,01,59,14.80
2023,05,13,02,00,14.70
2023,05,13,02,01,14.70
2023,05,13,02,02,14.70
2023,05,13,02,03,14.70
2023,05,13,02,04,14.70
2023,05,13,02,05,14.70
2023,05,13,02,06,14.60
2023,05,13,02,07,14.60
2023,05,13,02,08,14.60
2023,05,13,02,09,14.60
2023,05,13,02,10,14.50
2023,05,13,02,11,14.50
2023,05,13,02,12,14.50
2023,05,13,02,13,14.50
2023,05,13,02,14,14.50
2023,05,13,02,15,14.40
2023,05,13,02,16,14.40
2023,05,13,02,17,14.40
2023,05,13,02,18,14.40
2023,05,13,02,19,14.40
2023,05,13,02,20,14.40
2023,05,13,02,21,14.30
2023,05,13,02,22,14.30
2023,05,13,02,23,14.30
2023,05,13,02,24,14.30
2023,05,13,02,25,14.30
2023,05,13,02,26,14.30
2023,05,13,02,27,14.30
2023,05,13,02,28,14.30
2023,05,13,02,29,14.30
2023,05,13,02,30,14.30
2023,05,13,02,31,14.30
2023,05,13,02,32,14.30
2023,05,13,02,33,14.30
2023,05,13,02,34,14.30
2023,05,13,02,35,14.30
2023,05,13,02,36,14.30
2023,05,13,02,37,14.30
2023,05,13,02,38,14.30
2023,05,13,02,39,14.30
2023,05,13,02,40,14.30
2023,05,13,02,41,14.20
2023,05,13,02,42,14.30
2023,05,13,02,43,14.20
2023,05,13,02,44,14.20
2023,05,13,02,45,14.20
2023,05,13,02,46,14.20
2023,05,13,02,47,14.20
2023,05,13,02,48,14.20
2023,05,13,02,49,14.20
2023,05,13,02,50,14.20
2023,05,13,02,51,14.20
2023,05,13,02,52,14.20
2023,05,13,02,53,14.20
2023,05,13,02,54,14.20
2023,05,13,02,55,14.10
2023,05,13,02,56,14.10
2023,05,13,02,57,14.10
2023,05,13,02,58,14.10
2023,05,13,02,59,14.10
2023,05,13,03,00,14.10
2023,05,13,03,01,14.10
2023,05,13,03,02,14.00
2023,05,13,03,03,14.00
2023,05,13,03,04,14.00
2023,05,13,03,05,14.00
2023,05,13,03,06,14.00
2023,05,13,03,07,14.00
2023,05,13,03,08,14.00
2023,05,13,03,09,14.00
2023,05,13,03,10,14.00
2023,05,13,03,11,13.90
2023,05,13,03,12,13.90
2023,05,13,03,13,13.90
2023,05,13,03,14,13.90
2023,05,13,03,15,13.90
2023,05,13,03,16,13.90
2023,05,13,03,17,13.90
2023,05,13,03,18,13.90
2023,05,13,03,19,13.80
2023,05,13,03,20,13.80
2023,05,13,03,21,13.80
2023,05,13,03,22,13.80
2023,05,13,03,23,13.80
2023,05,13,03,24,13.70
2023,05,13,03,25,13.70
2023,05,13,03,26,13.70
2023,05,13,03,27,13.70
2023,05,13,03,28,13.60
2023,05,13,03,29,13.60
2023,05,13,03,30,13.60
2023,05,13,03,31,13.60
2023,05,13,03,32,13.60
2023,05,13,03,33,13.60
2023,05,13,03,34,13.60
2023,05,13,03,35,13.60
2023,05,13,03,36,13.60
2023,05,13,03,37,13.60
2023,05,13,03,38,13.60
2023,05,13,03,39,13.50
2023,05,13,03,40,13.50
2023,05,13,03,41,13.50
2023,05,13,03,42,13.50
2023,05,13,03,43,13.50
2023,05,13,03,44,13.50
2023,05,13,03,45,13.50
2023,05,13,03,46,13.40
2023,05,13,03,47,13.40
2023,05,13,03,48,13.40
2023,05,13,03,49,13.40
2023,05,13,03,50,13.40
2023,05,13,03,51,13.40
2023,05,13,03,52,13.40
2023,05,13,03,53,13.40
2023,05,13,03,54,13.40
2023,05,13,03,55,13.30
2023,05,13,03,56,13.30
2023,05,13,03,57,13.30
2023,05,13,03,58,13.30
2023,05,13,03,59,13.30
2023,05,13,04,00,13.30
2023,05,13,04,01,13.30
2023,05,13,04,02,13.30
2023,05,13,04,03,13.30
2023,05,13,04,04,13.30
2023,05,13,04,05,13.30
2023,05,13,04,06,13.20
2023,05,13,04,07,13.20
2023,05,13,04,08,13.20
2023,05,13,04,09,13.20
2023,05,13,04,10,13.20
2023,05,13,04,11,13.20
2023,05,13,04,12,13.20
2023,05,13,04,13,13.10
2023,05,13,04,14,13.10
2023,05,13,04,15,13.10
2023,05,13,04,16,13.10
2023,05,13,04,17,13.10
2023,05,13,04,18,13.10
2023,05,13,04,19,13.10
2023,05,13,04,20,13.10
2023,05,13,04,21,13.00
2023,05,13,04,22,13.00
2023,05,13,04,23,13.00
2023,05,13,04,24,13.00
2023,05,13,04,25,13.00
2023,05,13,04,26,12.90
2023,05,13,04,27,12.90
2023,05,13,04,28,12.90
2023,05,13,04,29,12.90
2023,05,13,04,30,12.90
2023,05,13,04,31,12.90
2023,05,13,04,32,12.90
2023,05,13,04,33,12.90
2023,05,13,04,34,12.90
2023,05,13,04,35,12.90
2023,05,13,04,36,12.90
2023,05,13,04,37,12.90
2023,05,13,04,38,12.90
2023,05,13,04,39,12.90
2023,05,13,04,40,12.90
2023,05,13,04,41,12.90
2023,05,13,04,42,12.90
2023,05,13,04,43,12.90
2023,05,13,04,44,12.90
2023,05,13,04,45,12.90
2023,05,13,04,46,12.90
2023,05,13,04,47,12.90
2023,05,13,04,48,12.90
2023,05,13,04,49,12.80
2023,05,13,04,50,12.80
2023,05,13,04,51,12.80
2023,05,13,04,52,12.80
2023,05,13,04,53,12.80
2023,05,13,04,54,12.80
2023,05,13,04,55,12.80
2023,05,13,04,56,12.80
2023,05,13,04,57,12.70
2023,05,13,04,58,12.70
2023,05,13,04,59,12.70
2023,05,13,05,00,12.70
2023,05,13,05,01,12.70
2023,05,13,05,02,12.70
2023,05,13,05,03,12.70
2023,05,13,05,04,12.70
2023,05,13,05,05,12.70
2023,05,13,05,06,12.70
2023,05,13,05,07,12.70
2023,05,13,05,08,12.70
2023,05,13,05,09,12.70
2023,05,13,05,10,12.70
2023,05,13,05,11,12.70
2023,05,13,05,12,12.70
2023,05,13,05,13,12.70
2023,05,13,05,14,12.70
2023,05,13,05,15,12.60
2023,05,13,05,16,12.60
2023,05,13,05,17,12.60
2023,05,13,05,18,12.60
2023,05,13,05,19,12.60
2023,05,13,05,20,12.60
2023,05,13,05,21,12.60
2023,05,13,05,22,12.60
2023,05,13,05,23,12.60
2023,05,13,05,24,12.60
2023,05,13,05,25,12.60
2023,05,13,05,26,12.60
2023,05,13,05,27,12.60
2023,05,13,05,28,12.50
2023,05,13,05,29,12.50
2023,05,13,05,30,12.50
2023,05,13,05,31,12.50
2023,05,13,05,32,12.50
2023,05,13,05,33,12.50
2023,05,13,05,34,12.50
2023,05,13,05,35,12.50
2023,05,13,05,36,12.50
2023,05,13,05,37,12.50
2023,05,13,05,38,12.50
2023,05,13,05,39,12.40
2023,05,13,05,40,12.50
2023,05,13,05,41,12.50
2023,05,13,05,42,12.40
2023,05,13,05,43,12.40
2023,05,13,05,44,12.40
2023,05,13,05,45,12.40
2023,05,13,05,46,12.40
2023,05,13,05,47,12.40
2023,05,13,05,48,12.40
2023,05,13,05,49,12.40
2023,05,13,05,50,12.40
2023,05,13,05,51,12.40
2023,05,13,05,52,12.40
2023,05,13,05,53,12.40
2023,05,13,05,54,12.40
2023,05,13,05,55,12.40
2023,05,13,05,56,12.40
2023,05,13,05,57,12.40
2023,05,13,05,58,12.40
2023,05,13,05,59,12.40
2023,05,13,06,00,12.40
2023,05,13,06,01,12.40
2023,05,13,06,02,12.40
2023,05,13,06,03,12.40
2023,05,13,06,04,12.40
2023,05,13,06,05,12.40
2023,05,13,06,06,12.40
2023,05,13,06,07,12.40
2023,05,13,06,08,12.40
2023,05,13,06,09,12.40
2023,05,13,06,10,12.40
2023,05,13,06,11,12.40
2023,05,13,06,12,12.40
2023,05,13,06,13,12.40
2023,05,13,06,14,12.40
2023,05,13,06,15,12.40
2023,05,13,06,16,12.40
2023,05,13,06,17,12.40
2023,05,13,06,18,12.40
2023,05,13,06,19,12.50
2023,05,13,06,20,12.50
2023,05,13,06,21,12.50
2023,05,13,06,22,12.50
2023,05,13,06,23,12.50
2023,05,13,06,24,12.60
2023,05,13,06,25,12.60
2023,05,13,06,26,12.60
2023,05,13,06,27,12.60
2023,05,13,06,28,12.60
2023,05,13,06,29,12.70
2023,05,13,06,30,12.70
2023,05,13,06,31,12.70
2023,05,13,06,32,12.70
2023,05,13,06,33,12.70
2023,05,13,06,34,12.70
2023,05,13,06,35,12.70
2023,05,13,06,36,12.70
2023,05,13,06,37,12.70
2023,05,13,06,38,12.70
2023,05,13,06,39,12.70
2023,05,13,06,40,12.70
2023,05,13,06,41,12.70
2023,05,13,06,42,12.70
2023,05,13,06,43,12.80
2023,05,13,06,44,12.80
2023,05,13,06,45,12.90
2023,05,13,06,46,12.90
2023,05,13,06,47,12.90
2023,05,13,06,48,13.00
2023,05,13,06,49,13.00
2023,05,13,06,50,13.10
2023,05,13,06,51,13.10
2023,05,13,06,52,13.20
2023,05,13,06,53,13.20
2023,05,13,06,54,13.20
2023,05,13,06,55,13.20
2023,05,13,06,56,13.30
2023,05,13,06,57,13.30
2023,05,13,06,58,13.30
2023,05,13,06,59,13.40
2023,05,13,07,00,13.40
2023,05,13,07,01,13.50
2023,05,13,07,02,13.50
2023,05,13,07,03,13.60
2023,05,13,07,04,13.70
2023,05,13,07,05,13.70
2023,05,13,07,06,13.80
2023,05,13,07,07,13.80
2023,05,13,07,08,13.90
2023,05,13,07,09,13.90
2023,05,13,07,10,14.00
2023,05,13,07,11,14.00
2023,05,13,07,12,14.10
2023,05,13,07,13,14.10
2023,05,13,07,14,14.20
2023,05,13,07,15,14.20
2023,05,13,07,16,14.30
2023,05,13,07,17,14.30
2023,05,13,07,18,14.30
2023,05,13,07,19,14.40
2023,05,13,07,20,14.40
2023,05,13,07,21,14.40
2023,05,13,07,22,14.50
2023,05,13,07,23,14.50
2023,05,13,07,24,14.60
2023,05,13,07,25,14.60
2023,05,13,07,26,14.60
2023,05,13,07,27,14.60
2023,05,13,07,28,14.60
2023,05,13,07,29,14.60
2023,05,13,07,30,14.70
2023,05,13,07,31,14.70
2023,05,13,07,32,14.70
2023,05,13,07,33,14.70
2023,05,13,07,34,14.80
2023,05,13,07,35,14.90
2023,05,13,07,36,15.00
2023,05,13,07,37,15.10
2023,05,13,07,38,15.20
2023,05,13,07,39,15.20
2023,05,13,07,40,15.30
2023,05,13,07,41,15.30
2023,05,13,07,42,15.30
2023,05,13,07,43,15.30
2023,05,13,07,44,15.30
2023,05,13,07,45,15.40
2023,05,13,07,46,15.40
2023,05,13,07,47,15.40
2023,05,13,07,48,15.40
2023,05,13,07,49,15.40
2023,05,13,07,50,15.40
2023,05,13,07,51,15.40
2023,05,13,07,52,15.40
2023,05,13,07,53,15.40
2023,05,13,07,54,15.40
2023,05,13,07,55,15.40
2023,05,13,07,56,15.40
2023,05,13,07,57,15.40
2023,05,13,07,58,15.50
2023,05,13,07,59,15.50
2023,05,13,08,00,15.60
2023,05,13,08,01,15.60
2023,05,13,08,02,15.60
2023,05,13,08,03,15.60
2023,05,13,08,04,15.60
2023,05,13,08,05,15.60
2023,05,13,08,06,15.60
2023,05,13,08,07,15.60
2023,05,13,08,08,15.60
2023,05,13,08,09,15.60
2023,05,13,08,10,15.70
2023,05,13,08,11,15.70
2023,05,13,08,12,15.80
2023,05,13,08,13,15.80
2023,05,13,08,14,15.90
2023,05,13,08,15,16.00
2023,05,13,08,16,16.00
2023,05,13,08,17,16.10
2023,05,13,08,18,16.20
2023,05,13,08,19,16.30
2023,05,13,08,20,16.40
2023,05,13,08,21,16.40
2023,05,13,08,22,16.50
2023,05,13,08,23,16.60
2023,05,13,08,24,16.70
2023,05,13,08,25,16.80
2023,05,13,08,26,17.00
2023,05,13,08,27,17.20
2023,05,13,08,28,17.50
2023,05,13,08,29,17.70
2023,05,13,08,30,17.90
2023,05,13,08,31,18.20
2023,05,13,08,32,18.50
2023,05,13,08,33,18.90
2023,05,13,08,34,19.20
2023,05,13,08,35,19.50
2023,05,13,08,36,19.70
2023,05,13,08,37,19.80
2023,05,13,08,38,19.90
2023,05,13,08,39,20.00
2023,05,13,08,40,20.10
2023,05,13,08,41,20.10
2023,05,13,08,42,20.20
2023,05,13,08,43,20.20
2023,05,13,08,44,20.30
2023,05,13,08,45,20.30
2023,05,13,08,46,20.30
2023,05,13,08,47,20.30
2023,05,13,08,48,20.40
2023,05,13,08,49,20.40
2023,05,13,08,50,20.50
2023,05,13,08,51,20.50
2023,05,13,08,52,20.50
2023,05,13,08,53,20.50
2023,05,13,08,54,20.50
2023,05,13,08,55,20.60
2023,05,13,08,56,20.60
2023,05,13,08,57,20.60
2023,05,13,08,58,20.60
2023,05,13,08,59,20.60
2023,05,13,09,00,20.60
2023,05,13,09,01,20.60
2023,05,13,09,02,20.60
2023,05,13,09,03,20.60
2023,05,13,09,04,20.60
2023,05,13,09,05,20.60
2023,05,13,09,06,20.60
2023,05,13,09,07,20.60
2023,05,13,09,08,20.60
2023,05,13,09,09,20.60
2023,05,13,09,10,20.60
2023,05,13,09,11,20.60
2023,05,13,09,12,20.60
2023,05,13,09,13,20.60
2023,05,13,09,14,20.60
2023,05,13,09,15,20.60
2023,05,13,09,16,20.60
2023,05,13,09,17,20.60
2023,05,13,09,18,20.70
2023,05,13,09,19,20.70
2023,05,13,09,20,20.70
2023,05,13,09,21,20.70
2023,05,13,09,22,20.70
2023,05,13,09,23,20.70
2023,05,13,09,24,20.70
2023,05,13,09,25,20.70
2023,05,13,09,26,20.70
2023,05,13,09,27,20.70
2023,05,13,09,28,20.80
2023,05,13,09,29,20.90
2023,05,13,09,30,20.90
2023,05,13,09,31,20.90
2023,05,13,09,32,21.00
2023,05,13,09,33,21.00
2023,05,13,09,34,21.00
2023,05,13,09,35,21.10
2023,05,13,09,36,21.10
2023,05,13,09,37,21.10
2023,05,13,09,38,21.10
2023,05,13,09,39,21.10
2023,05,13,09,40,21.10
2023,05,13,09,41,21.10
2023,05,13,09,42,21.10
2023,05,13,09,43,21.20
2023,05,13,09,44,21.20
2023,05,13,09,45,21.20
2023,05,13,09,46,21.30
2023,05,13,09,47,21.30
2023,05,13,09,48,21.40
2023,05,13,09,49,21.40
2023,05,13,09,50,21.50
2023,05,13,09,51,21.50
2023,05,13,09,52,21.60
2023,05,13,09,53,21.60
2023,05,13,09,54,21.70
2023,05,13,09,55,21.70
2023,05,13,09,56,21.80
2023,05,13,09,57,21.80
2023,05,13,09,58,21.80
2023,05,13,09,59,21.80
2023,05,13,10,00,21.80
2023,05,13,10,01,21.80
2023,05,13,10,02,21.90
2023,05,13,10,03,21.90
2023,05,13,10,04,22.00
2023,05,13,10,05,22.00
2023,05,13,10,06,22.10
2023,05,13,10,07,22.10
2023,05,13,10,08,22.10
2023,05,13,10,09,22.20
2023,05,13,10,10,22.20
2023,05,13,10,11,22.10
2023,05,13,10,12,22.10
2023,05,13,10,13,22.10
2023,05,13,10,14,22.20
2023,05,13,10,15,22.20
2023,05,13,10,16,22.20
2023,05,13,10,17,22.30
2023,05,13,10,18,22.30
2023,05,13,10,19,22.30
2023,05,13,10,20,22.40
2023,05,13,10,21,22.40
2023,05,13,10,22,22.40
2023,05,13,10,23,22.50
2023,05,13,10,24,22.40
2023,05,13,10,25,22.40
2023,05,13,10,26,22.40
2023,05,13,10,27,22.50
2023,05,13,10,28,22.50
2023,05,13,10,29,22.50
2023,05,13,10,30,22.50
2023,05,13,10,31,22.50
2023,05,13,10,32,22.40
2023,05,13,10,33,22.40
2023,05,13,10,34,22.40
2023,05,13,10,35,22.40
2023,05,13,10,36,22.40
2023,05,13,10,37,22.40
2023,05,13,10,38,22.50
2023,05,13,10,39,22.60
2023,05,13,10,40,22.60
2023,05,13,10,41,22.70
2023,05,13,10,42,22.70
2023,05,13,10,43,22.70
2023,05,13,10,44,22.80
2023,05,13,10,45,22.80
2023,05,13,10,46,22.80
2023,05,13,10,47,22.80
2023,05,13,10,48,22.80
2023,05,13,10,49,22.80
2023,05,13,10,50,22.80
2023,05,13,10,51,22.80
2023,05,13,10,52,22.70
2023,05,13,10,53,22.70
2023,05,13,10,54,22.70
2023,05,13,10,55,22.80
2023,05,13,10,56,22.80
2023,05,13,10,57,22.90
2023,05,13,10,58,22.90
2023,05,13,10,59,23.00
2023,05,13,11,00,23.00
2023,05,13,11,01,23.10
2023,05,13,11,02,23.10
2023,05,13,11,03,23.20
2023,05,13,11,04,23.20
2023,05,13,11,05,23.20
2023,05,13,11,06,23.30
2023,05,13,11,07,23.40
2023,05,13,11,08,23.40
2023,05,13,11,09,23.40
2023,05,13,11,10,23.50
2023,05,13,11,11,23.50
2023,05,13,11,12,23.50
2023,05,13,11,13,23.40
2023,05,13,11,14,23.50
2023,05,13,11,15,23.50
2023,05,13,11,16,23.60
2023,05,13,11,17,23.60
2023,05,13,11,18,23.60
2023,05,13,11,19,23.70
2023,05,13,11,20,23.70
2023,05,13,11,21,23.70
2023,05,13,11,22,23.70
2023,05,13,11,23,23.80
2023,05,13,11,24,23.80
2023,05,13,11,25,23.90
2023,05,13,11,26,23.90
2023,05,13,11,27,23.90
2023,05,13,11,28,23.90
2023,05,13,11,29,23.90
2023,05,13,11,30,23.80
2023,05,13,11,31,23.80
2023,05,13,11,32,23.90
2023,05,13,11,33,23.90
2023,05,13,11,34,24.00
2023,05,13,11,35,24.00
2023,05,13,11,36,24.00
2023,05,13,11,37,24.00
2023,05,13,11,38,23.90
2023,05,13,11,39,23.90
2023,05,13,11,40,23.90
2023,05,13,11,41,23.80
2023,05,13,11,42,23.80
2023,05,13,11,43,23.80
2023,05,13,11,44,23.90
2023,05,13,11,45,23.90
2023,05,13,11,46,24.00
2023,05,13,11,47,24.10
2023,05,13,11,48,24.20
2023,05,13,11,49,24.20
2023,05,13,11,50,24.20
2023,05,13,11,51,24.20
2023,05,13,11,52,24.30
2023,05,13,11,53,24.30
2023,05,13,11,54,24.30
2023,05,13,11,55,24.30
2023,05,13,11,56,24.40
2023,05,13,11,57,24.50
2023,05,13,11,58,24.50
2023,05,13,11,59,24.50
2023,05,13,12,00,24.40
2023,05,13,12,01,24.40
2023,05,13,12,02,24.40
2023,05,13,12,03,24.50
2023,05,13,12,04,24.60
2023,05,13,12,05,24.70
2023,05,13,12,06,24.70
2023,05,13,12,07,24.70
2023,05,13,12,08,24.70
2023,05,13,12,09,24.70
2023,05,13,12,10,24.70
2023,05,13,12,11,24.70
2023,05,13,12,12,24.70
2023,05,13,12,13,24.70
2023,05,13,12,14,24.60
2023,05,13,12,15,24.60
2023,05,13,12,16,24.60
2023,05,13,12,17,24.60
2023,05,13,12,18,24.60
2023,05,13,12,19,24.70
2023,05,13,12,20,24.70
2023,05,13,12,21,24.70
2023,05,13,12,22,24.70
2023,05,13,12,23,24.80
2023,05,13,12,24,24.80
2023,05,13,12,25,24.70
2023,05,13,12,26,24.80
2023,05,13,12,27,24.70
2023,05,13,12,28,24.70
2023,05,13,12,29,24.60
2023,05,13,12,30,24.60
2023,05,13,12,31,24.60
2023,05,13,12,32,24.60
2023,05,13,12,33,24.70
2023,05,13,12,34,24.70
2023,05,13,12,35,24.70
2023,05,13,12,36,24.70
2023,05,13,12,37,24.70
2023,05,13,12,38,24.70
2023,05,13,12,39,24.70
2023,05,13,12,40,24.70
2023,05,13,12,41,24.80
2023,05,13,12,42,24.80
2023,05,13,12,43,24.80
2023,05,13,12,44,24.80
2023,05,13,12,45,24.80
2023,05,13,12,46,24.80
2023,05,13,12,47,24.80
2023,05,13,12,48,24.80
2023,05,13,12,49,24.80
2023,05,13,12,50,24.80
2023,05,13,12,51,24.70
2023,05,13,12,52,24.70
2023,05,13,12,53,24.70
2023,05,13,12,54,24.70
2023,05,13,12,55,24.70
2023,05,13,12,56,24.70
2023,05,13,12,57,24.70
2023,05,13,12,58,24.70
2023,05,13,12,59,24.70
2023,05,13,13,00,24.70
2023,05,13,13,01,24.80
2023,05,13,13,02,24.80
2023,05,13,13,03,24.80
2023,05,13,13,04,24.80
2023,05,13,13,05,24.80
2023,05,13,13,06,24.80
2023,05,13,13,07,24.80
2023,05,13,13,08,24.80
2023,05,13,13,09,24.80
2023,05,13,13,10,24.90
2023,05,13,13,11,25.00
2023,05,13,13,12,25.00
2023,05,13,13,13,24.90
2023,05,13,13,14,24.80
2023,05,13,13,15,24.80
2023,05,13,13,16,24.80
2023,05,13,13,17,24.80
2023,05,13,13,18,24.80
2023,05,13,13,19,24.80
2023,05,13,13,20,24.80
2023,05,13,13,21,24.80
2023,05,13,13,22,24.80
2023,05,13,13,23,24.80
2023,05,13,13,24,24.80
2023,05,13,13,25,24.80
2023,05,13,13,26,24.80
2023,05,13,13,27,24.80
2023,05,13,13,28,24.90
2023,05,13,13,29,24.80
2023,05,13,13,30,24.80
2023,05,13,13,31,24.80
2023,05,13,13,32,24.80
2023,05,13,13,33,24.80
2023,05,13,13,34,24.90
2023,05,13,13,35,24.90
2023,05,13,13,36,25.00
2023,05,13,13,37,25.00
2023,05,13,13,38,24.90
2023,05,13,13,39,24.90
2023,05,13,13,40,25.00
2023,05,13,13,41,25.10
2023,05,13,13,42,25.10
2023,05,13,13,43,25.20
2023,05,13,13,44,25.20
2023,05,13,13,45,25.20
2023,05,13,13,46,25.20
2023,05,13,13,47,25.30
2023,05,13,13,48,25.40
2023,05,13,13,49,25.40
2023,05,13,13,50,25.50
2023,05,13,13,51,25.50
2023,05,13,13,52,25.50
2023,05,13,13,53,25.40
2023,05,13,13,54,25.40
2023,05,13,13,55,25.40
2023,05,13,13,56,25.50
2023,05,13,13,57,25.50
2023,05,13,13,58,25.60
2023,05,13,13,59,25.60
2023,05,13,14,00,25.60
2023,05,13,14,01,25.60
2023,05,13,14,02,25.70
2023,05,13,14,03,25.70
2023,05,13,14,04,25.70
2023,05,13,14,05,25.70
2023,05,13,14,06,25.70
2023,05,13,14,07,25.70
2023,05,13,14,08,25.70
2023,05,13,14,09,25.80
2023,05,13,14,10,25.80
2023,05,13,14,11,25.80
2023,05,13,14,12,25.80
2023,05,13,14,13,25.80
2023,05,13,14,14,25.90
2023,05,13,14,15,25.90
2023,05,13,14,16,26.00
2023,05,13,14,17,26.10
2023,05,13,14,18,26.00
2023,05,13,14,19,26.00
2023,05,13,14,20,25.90
2023,05,13,14,21,25.90
2023,05,13,14,22,25.90
2023,05,13,14,23,25.80
2023,05,13,14,24,25.70
2023,05,13,14,25,25.70
2023,05,13,14,26,25.80
2023,05,13,14,27,25.80
2023,05,13,14,28,25.80
2023,05,13,14,29,25.80
2023,05,13,14,30,25.80
2023,05,13,14,31,25.80
2023,05,13,14,32,25.70
2023,05,13,14,33,25.70
2023,05,13,14,34,25.70
2023,05,13,14,35,25.70
2023,05,13,14,36,25.60
2023,05,13,14,37,25.70
2023,05,13,14,38,25.80
2023,05,13,14,39,25.80
2023,05,13,14,40,25.80
2023,05,13,14,41,25.90
2023,05,13,14,42,25.80
2023,05,13,14,43,25.80
2023,05,13,14,44,25.80
2023,05,13,14,45,25.70
2023,05,13,14,46,25.70
2023,05,13,14,47,25.70
2023,05,13,14,48,25.70
2023,05,13,14,49,25.80
2023,05,13,14,50,25.80
2023,05,13,14,51,25.70
2023,05,13,14,52,25.60
2023,05,13,14,53,25.70
2023,05,13,14,54,25.70
2023,05,13,14,55,25.70
2023,05,13,14,56,25.70
2023,05,13,14,57,25.80
2023,05,13,14,58,25.80
2023,05,13,14,59,25.80
2023,05,13,15,00,25.80
2023,05,13,15,01,25.80
2023,05,13,15,02,25.90
2023,05,13,15,03,26.00
2023,05,13,15,04,26.00
2023,05,13,15,05,26.00
2023,05,13,15,06,26.00
2023,05,13,15,07,26.00
2023,05,13,15,08,26.00
2023,05,13,15,09,26.10
2023,05,13,15,10,26.10
2023,05,13,15,11,26.10
2023,05,13,15,12,26.20
2023,05,13,15,13,26.20
2023,05,13,15,14,26.20
2023,05,13,15,15,26.30
2023,05,13,15,16,26.30
2023,05,13,15,17,26.30
2023,05,13,15,18,26.30
2023,05,13,15,19,26.40
2023,05,13,15,20,26.40
2023,05,13,15,21,26.50
2023,05,13,15,22,26.50
2023,05,13,15,23,26.50
2023,05,13,15,24,26.60
2023,05,13,15,25,26.60
2023,05,13,15,26,26.60
2023,05,13,15,27,26.60
2023,05,13,15,28,26.70
2023,05,13,15,29,26.60
2023,05,13,15,30,26.60
2023,05,13,15,31,26.60
2023,05,13,15,32,26.50
2023,05,13,15,33,26.50
2023,05,13,15,34,26.50
2023,05,13,15,35,26.40
2023,05,13,15,36,26.40
2023,05,13,15,37,26.40
2023,05,13,15,38,26.40
2023,05,13,15,39,26.40
2023,05,13,15,40,26.40
2023,05,13,15,41,26.30
2023,05,13,15,42,26.30
2023,05,13,15,43,26.40
2023,05,13,15,44,26.40
2023,05,13,15,45,26.40
2023,05,13,15,46,26.40
2023,05,13,15,47,26.50
2023,05,13,15,48,26.60
2023,05,13,15,49,26.60
2023,05,13,15,50,26.60
2023,05,13,15,51,26.70
2023,05,13,15,52,26.70
2023,05,13,15,53,26.60
2023,05,13,15,54,26.60
2023,05,13,15,55,26.60
2023,05,13,15,56,26.60
2023,05,13,15,57,26.70
2023,05,13,15,58,26.70
2023,05,13,15,59,26.70
2023,05,13,16,00,26.80
2023,05,13,16,01,26.80
2023,05,13,16,02,26.80
2023,05,13,16,03,26.70
2023,05,13,16,04,26.80
2023,05,13,16,05,26.80
2023,05,13,16,06,26.80
2023,05,13,16,07,26.80
2023,05,13,16,08,26.90
2023,05,13,16,09,26.90
2023,05,13,16,10,26.90
2023,05,13,16,11,26.90
2023,05,13,16,12,26.90
2023,05,13,16,13,27.00
2023,05,13,16,14,27.00
2023,05,13,16,15,27.00
2023,05,13,16,16,26.90
2023,05,13,16,17,27.00
2023,05,13,16,18,26.90
2023,05,13,16,19,27.00
2023,05,13,16,20,26.90
2023,05,13,16,21,27.00
2023,05,13,16,22,27.10
2023,05,13,16,23,27.10
2023,05,13,16,24,27.10
2023,05,13,16,25,27.10
2023,05,13,16,26,27.10
2023,05,13,16,27,27.10
2023,05,13,16,28,27.10
2023,05,13,16,29,27.10
2023,05,13,16,30,27.10
2023,05,13,16,31,27.10
2023,05,13,16,32,27.10
2023,05,13,16,33,27.10
2023,05,13,16,34,27.10
2023,05,13,16,35,27.20
2023,05,13,16,36,27.10
2023,05,13,16,37,27.10
2023,05,13,16,38,27.10
2023,05,13,16,39,27.10
2023,05,13,16,40,27.10
2023,05,13,16,41,27.10
2023,05,13,16,42,27.10
2023,05,13,16,43,27.10
2023,05,13,16,44,27.20
2023,05,13,16,45,27.20
2023,05,13,16,46,27.20
2023,05,13,16,47,27.30
2023,05,13,16,48,27.30
2023,05,13,16,49,27.30
2023,05,13,16,50,27.30
2023,05,13,16,51,27.30
2023,05,13,16,52,27.30
2023,05,13,16,53,27.30
2023,05,13,16,54,27.20
2023,05,13,16,55,27.20
2023,05,13,16,56,27.10
2023,05,13,16,57,27.10
2023,05,13,16,58,27.20
2023,05,13,16,59,27.20
2023,05,13,17,00,27.10
2023,05,13,17,01,27.10
2023,05,13,17,02,27.10
2023,05,13,17,03,27.10
2023,05,13,17,04,27.20
2023,05,13,17,05,27.20
2023,05,13,17,06,27.20
2023,05,13,17,07,27.30
2023,05,13,17,08,27.30
2023,05,13,17,09,27.30
2023,05,13,17,10,27.30
2023,05,13,17,11,27.30
2023,05,13,17,12,27.30
2023,05,13,17,13,27.30
2023,05,13,17,14,27.30
2023,05,13,17,15,27.30
2023,05,13,17,16,27.30
2023,05,13,17,17,27.40
2023,05,13,17,18,27.40
2023,05,13,17,19,27.40